Regional Weather Roundup
Issued by NWS

Home | Current Version | Previous Version | Text Only | Print | Product List | Glossary Off
Versions: 1 2 3 4 5 6 7 8 9 10 11 12 13 14 15 16 17 18 19 20 21 22 23 24 25 26 27 28 29 30 31 32 33 34 35 36 37 38 39 40 41 42 43 44 45 46 47 48 49 50

000
ASUS45 KBOU 251307
RWRCO

WEATHER ROUNDUP FOR COLORADO
NATIONAL WEATHER SERVICE DENVER/BOULDER CO
700 AM MDT SAT MAR 25 2017

NOTE: "FAIR" INDICATES FEW OR NO CLOUDS BELOW 12000 FEET WITH NO
SIGNIFICANT WEATHER AND/OR OBSTRUCTIONS TO VISIBILITY.

COZ001>005-013-030-031-251400-
...NORTHWEST COLORADO...

CITY           SKY/WX    TMP DP  RH WIND       PRES   REMARKS
CRAIG          FAIR      25  20  81 W3        30.10F
HAYDEN         FAIR      30  19  64 E12       30.11S WCI  21
MEEKER         FAIR      25  21  85 CALM      30.09F
MOUNT WERNER   NOT AVBL
STEAMBOAT SPGS FAIR      27  23  85 SE3       30.12F
WALDEN         NOT AVBL
$$

COZ006>008-011-251400-
...WEST CENTRAL VALLEYS...

CITY           SKY/WX    TMP DP  RH WIND       PRES   REMARKS
GRAND JUNCTION FAIR      39  29  67 E15       30.07F
MONTROSE       FAIR      32  26  78 S7        30.15S WCI  26
EAGLE          CLEAR     25  21  86 CALM      30.19F
RIFLE          FAIR      29  24  82 CALM      30.12F
DELTA          FAIR      35  25  67 CALM      30.13S
NUCLA          FAIR      32  27  80 SE5       30.15F WCI  27
$$

COZ017>023-064>068-251400-
...SOUTHWEST COLORADO...

CITY           SKY/WX    TMP DP  RH WIND       PRES   REMARKS
DURANGO        FAIR      27  20  75 E5        30.16F WCI  22
CORTEZ         FAIR      24  22  91 SE6       30.13F WCI  17
PAGOSA SPRINGS FAIR      30  29  98 CALM      30.19S
TELLURIDE      NOT AVBL
WOLF CREEK PAS FAIR      30  -6  21 W6        30.32S WCI  24
$$

COZ009-010-012-014-032>034-037-058>063-251400-
...CENTRAL COLORADO...

CITY           SKY/WX    TMP DP  RH WIND       PRES   REMARKS
ASPEN          FAIR      29  20  69 S3        30.14F
BUENA VISTA    FAIR      29  19  63 NW9       30.16F WCI  21
COPPER MTN     FAIR      32 -17  11 SW3       30.26S
BERTHOUD PASS  FAIR      23  10  58 NW16      30.25S WCI  10
COTTONWOOD PAS FAIR      37  -6  15 W6        30.19S
GUNNISON       FAIR      23  20  88 CALM      30.23S
KREMMLING      FAIR      23  21  93 CALM      30.20F
LEADVILLE      FAIR      17   8  67 NE3       30.19F
MONARCH PASS   FAIR      27   1  33 W28       30.34F WCI  11
SALIDA         FAIR      34  21  58 NW14      30.21F WCI  25
SUNLIGHT       FAIR      27  18  69 S6        30.24F WCI  20
WILKERSON PASS FAIR      32  -6  19 W9        30.24S WCI  24
$$

COZ069>075-251400-
...SAN LUIS VALLEY/SANGRE DE CRISTO MOUNTAINS...

CITY           SKY/WX    TMP DP  RH WIND       PRES   REMARKS
ALAMOSA        FAIR      22  19  89 W3        30.19S
LA VETA PASS   NOT AVBL
SAGUACHE       NOT AVBL
$$

COZ035-036-038>040-251400-
...NORTHERN COLORADO FRONT RANGE...

CITY           SKY/WX    TMP DP  RH WIND       PRES   REMARKS
DENVER INTL AP FAIR      32  26  78 SW10      30.04F WCI  24
DMNS CITY PARK   N/A     33  26  75 SE6       30.05S WCI  28
AURORA         PTCLDY    32  26  78 S10       30.05F WCI  24
FRONT RANGE AP PTCLDY    32  28  86 S7        30.04F WCI  26
ERIE MUNI ARPT FAIR      27  26  94 CALM      30.05F
BOULDER MUN AP FAIR      34  30  86 CALM      30.04F
CENTENNIAL     FAIR      32  26  78 SE7       30.05F WCI  26
BROOMFIELD     PTCLDY    36  28  75 CALM      30.05F
FORT COLLINS   FAIR      28  27  96 CALM      30.05S
LONGMONT       FAIR      27  24  86 CALM      30.07F
$$

COZ041-046-047-076>085-087-088-251400-
...PIKES PEAK/PALMER DIVIDE AND SOUTHERN FOOTHILLS...

CITY           SKY/WX    TMP DP  RH WIND       PRES   REMARKS
COLO. SPRINGS  FAIR      29  24  82 N8        30.09F WCI  21
A. F. ACADEMY  FAIR      22  21  93 N8        30.09S WCI  13
SCHRIEVER AFB  FAIR      30  27  86 NW8       30.10S WCI  23
ELLICOTT         N/A    N/A N/A N/A CALM      30.08F
FALCON         FAIR      26  22  85 W7        30.11S WCI  18
FORT CARSON    FAIR      28  23  83 NW7       30.08S WCI  20
LIMON          FAIR      23  22  96 NW3       30.09R
MONUMENT HILL  FAIR      27  19  74 S12       30.09S WCI  16
TRINIDAD       FAIR      31  25  78 SW17      30.10F WCI  19
$$

COZ042>045-048>051-090-091-251400-
...NORTHEAST COLORADO...

CITY           SKY/WX    TMP DP  RH WIND       PRES   REMARKS
GREELEY ARPT   FAIR      23  19  85 NW5       30.08R WCI  17
AKRON          FAIR      31  26  82 SW8       30.06R WCI  23
BURLINGTON     FAIR      32  28  85 NW10      30.06S WCI  24
WRAY           NOT AVBL
STERLING       FAIR      28  28 100 S5        30.06S WCI  23
HOLYOKE        FAIR      34  32  93 W8        30.05S WCI  27
FORT MORGAN    FAIR      29  28  94 W6        30.07S WCI  23
$$

COZ086-089-092>099-251400-
...SOUTHEAST COLORADO...

CITY           SKY/WX    TMP DP  RH WIND       PRES   REMARKS
PUEBLO         FAIR      27  24  89 W5        30.09F WCI  22
LA JUNTA       FAIR      33  30  88 SW7       30.10S WCI  27
LAMAR          FAIR      31  28  89 W10       30.07F WCI  22
SPRINGFIELD      N/A     29  27  92 W8        30.08S WCI  21
$$



USA.gov is the U.S. government's official web portal to all federal, state and local government web resources and services.